Seward, AK

3:22 AM AKDT on March 24, 2017 (GMT -0800)
Seward

Weather History for PAWD - May, 2012

Change the Weather History Date:

Friday, May 25, 2012

  Actual Average Record
Temperature  
Mean Temperature 45 °F -  
Max Temperature 46 °F 54 °F 75 °F (2006)
Min Temperature 43 °F 40 °F 33 °F (1950)
Degree Days  
Heating Degree Days 20    
Moisture  
Dew Point 43 °F    
Average Humidity 91    
Maximum Humidity 100    
Minimum Humidity 79    
Precipitation  
Precipitation 0.20 in - - ()
Sea Level Pressure  
Sea Level Pressure 29.91 in    
Wind  
Wind Speed 4 mph (SE)    
Max Wind Speed 12 mph    
Max Gust Speed -    
Visibility 10 miles    
Events Rain    
Averages and records for this station are not official NWS values.
T = Trace of Precipitation, MM = Missing Value Source: NWS Daily Summary

Daily Weather History Graph

Daily Weather History Graph

Search for Another Location

Airport or City:

Trip Planner

Search our weather history database for the weather conditions in past years. The results will help you decide how hot, cold, wet, or windy it might be!

Date:

Astronomy

May. 25, 2012 Rise Set
Actual Time 4:56 AM AKDT 10:54 PM AKDT
Civil Twilight 3:40 AM AKDT 12:11 AM AKDT
Nautical Twilight Sun does not rise Sun does not rise
Astronomical Twilight Sun does not rise Sun does not rise
Moon 9:34 AM AKDT (5/25) 1:34 AM AKDT (5/25)
Length of Visible Light 20h 31m
Length of Day
17h 58m
Waxing Crescent, 21% of the Moon is Illuminated
May 25
Waxing Crescent
May 28
First Quarter
Jun 4
Full
Jun 11
Last Quarter
Jun 19
New

Hourly Weather History & Observations

Time (AKDT) Temp. Windchill Dew Point Humidity Pressure Visibility Wind Dir Wind Speed Gust Speed Precip Events Conditions
12:53 AM 46.9 °F - 45.0 °F 93% 30.08 in 10.0 mi ESE 8.1 mph - 0.04 in Rain Light Rain
1:53 AM 46.0 °F 43.1 °F 45.0 °F 96% 30.07 in 10.0 mi SE 5.8 mph - 0.00 in   Overcast
2:46 AM 46.4 °F 43.5 °F 44.6 °F 93% 30.05 in 10.0 mi SE 5.8 mph - 0.00 in   Overcast
2:53 AM 46.0 °F 44.8 °F 45.0 °F 96% 30.06 in 10.0 mi SE 3.5 mph - 0.00 in   Overcast
3:42 AM 44.6 °F 43.1 °F 42.8 °F 93% 30.03 in 10.0 mi NNW 3.5 mph - N/A   Overcast
3:53 AM 45.0 °F - 43.0 °F 93% 30.04 in 10.0 mi Calm Calm - N/A   Overcast
4:53 AM 45.0 °F - 43.0 °F 93% 30.02 in 10.0 mi Calm Calm - N/A   Overcast
5:16 AM 44.6 °F - 42.8 °F 93% 30.01 in 7.0 mi Calm Calm - 0.00 in Rain Light Rain
5:41 AM 44.6 °F - 42.8 °F 93% 30.00 in 7.0 mi Calm Calm - 0.01 in Rain Light Rain
5:53 AM 45.0 °F - 44.1 °F 97% 30.00 in 8.0 mi Calm Calm - 0.01 in Rain Light Rain
6:53 AM 45.0 °F - 43.0 °F 93% 29.99 in 7.0 mi Calm Calm - 0.01 in Rain Light Rain
7:10 AM 44.6 °F - 44.6 °F 100% 29.98 in 10.0 mi Calm Calm - 0.01 in Rain Light Rain
7:22 AM 44.6 °F - 44.6 °F 100% 29.97 in 10.0 mi Calm Calm - 0.01 in Rain Light Rain
7:30 AM 44.6 °F - 44.6 °F 100% 29.97 in 9.0 mi Calm Calm - 0.01 in Rain Light Rain
7:43 AM 44.6 °F 43.1 °F 42.8 °F 93% 29.97 in 10.0 mi NNW 3.5 mph - 0.01 in Rain Light Rain
7:51 AM 44.6 °F 43.1 °F 42.8 °F 93% 29.96 in 10.0 mi NNW 3.5 mph - 0.01 in Rain Light Rain
7:53 AM 45.0 °F 43.5 °F 43.0 °F 93% 29.97 in 10.0 mi NNW 3.5 mph - 0.01 in Rain Light Rain
8:53 AM 46.0 °F - 44.1 °F 93% 29.95 in 7.0 mi Calm Calm - 0.04 in Rain Light Rain
9:08 AM 46.4 °F - 44.6 °F 93% 29.94 in 9.0 mi Calm Calm - 0.00 in Rain Light Rain
9:53 AM 46.0 °F 44.8 °F 44.1 °F 93% 29.93 in 10.0 mi SE 3.5 mph - 0.01 in Rain Light Rain
10:13 AM 46.4 °F 43.5 °F 42.8 °F 87% 29.92 in 10.0 mi SE 5.8 mph - 0.01 in Rain Light Rain
10:41 AM 46.4 °F 42.9 °F 44.6 °F 93% 29.92 in 10.0 mi SE 6.9 mph - 0.02 in Rain Light Rain
10:53 AM 46.0 °F 43.9 °F 44.1 °F 93% 29.91 in 9.0 mi SE 4.6 mph - 0.02 in Rain Light Rain
11:14 AM 46.4 °F 43.5 °F 44.6 °F 93% 29.91 in 10.0 mi SE 5.8 mph - 0.01 in Rain Light Rain
11:53 AM 46.0 °F 43.9 °F 44.1 °F 93% 29.89 in 10.0 mi South 4.6 mph - 0.02 in Rain Light Rain
12:00 PM 46.4 °F 43.5 °F 42.8 °F 87% 29.89 in 10.0 mi South 5.8 mph - 0.00 in Rain Light Rain
12:53 PM 46.0 °F 41.0 °F 42.1 °F 86% 29.88 in 10.0 mi SSE 10.4 mph - 0.01 in Rain Light Rain
1:53 PM 46.0 °F 40.6 °F 42.1 °F 86% 29.87 in 10.0 mi SSE 11.5 mph - 0.00 in Rain Light Rain
2:53 PM 46.0 °F 41.9 °F 42.1 °F 86% 29.86 in 10.0 mi SE 8.1 mph - 0.00 in Rain Light Rain
3:53 PM 46.0 °F 41.9 °F 42.1 °F 86% 29.83 in 10.0 mi SE 8.1 mph - 0.00 in Rain Light Rain
4:11 PM 46.4 °F 43.5 °F 42.8 °F 87% 29.83 in 10.0 mi SE 5.8 mph - 0.00 in Rain Light Rain
4:53 PM 46.0 °F 42.5 °F 42.1 °F 86% 29.81 in 10.0 mi ESE 6.9 mph - 0.01 in Rain Light Rain
5:10 PM 46.4 °F 42.9 °F 41.0 °F 81% 29.81 in 10.0 mi SE 6.9 mph - 0.00 in Rain Light Rain
5:22 PM 46.4 °F 45.2 °F 42.8 °F 87% 29.80 in 10.0 mi ESE 3.5 mph - 0.00 in Rain Light Rain
5:32 PM 46.4 °F 44.3 °F 42.8 °F 87% 29.80 in 10.0 mi SE 4.6 mph - 0.00 in Rain Light Rain
5:53 PM 46.0 °F 44.8 °F 41.0 °F 83% 29.79 in 10.0 mi SSE 3.5 mph - 0.00 in Rain Light Rain
6:53 PM 46.0 °F 44.8 °F 39.9 °F 79% 29.77 in 10.0 mi South 3.5 mph - 0.00 in Rain Light Rain
7:53 PM 45.0 °F - 42.1 °F 90% 29.75 in 10.0 mi Calm Calm - 0.02 in Rain Light Rain
8:53 PM 45.0 °F - 39.9 °F 82% 29.74 in 10.0 mi Calm Calm - 0.00 in   Overcast
9:53 PM 44.1 °F - 39.9 °F 85% 29.72 in 10.0 mi Calm Calm - N/A   Overcast
10:53 PM 44.1 °F - 42.1 °F 93% 29.71 in 10.0 mi Calm Calm - 0.00 in   Overcast
11:53 PM 43.0 °F - 39.9 °F 89% 29.70 in 10.0 mi Calm Calm - 0.00 in   Overcast